Weather History for YPAD - November, 2012

Change the Weather History Date:

Wednesday, November 28, 2012

  Actual Average Record
Temperature  
Mean Temperature 72 °F -  
Max Temperature 78 °F 78 °F 91 °F (2003)
Min Temperature 66 °F 58 °F 50 °F (1996)
Cooling Degree Days 7    
Growing Degree Days 22 (Base 50)    
Moisture  
Dew Point 59 °F    
Average Humidity 59    
Maximum Humidity 88    
Minimum Humidity 41    
Precipitation  
Precipitation 0.00 in 0.03 in - ()
Sea Level Pressure  
Sea Level Pressure 29.81 in    
Wind  
Wind Speed 7 mph ()    
Max Wind Speed 14 mph    
Max Gust Speed -    
Visibility 16.6 miles    
Events      
Averages and records for this station are not official NWS values.
T = Trace of Precipitation, MM = Missing Value Source: Averaged Metar Reports

Daily Weather History Graph

Daily Weather History Graph

Search for Another Location

Airport or City:

Trip Planner

Search our weather history database for the weather conditions in past years. The results will help you decide how hot, cold, wet, or windy it might be!

Date:

Astronomy

Nov. 28, 2012 Rise Set
Actual Time 5:56 AM ACDT 8:12 PM ACDT
Civil Twilight 5:27 AM ACDT 8:41 PM ACDT
Nautical Twilight 4:51 AM ACDT 9:16 PM ACDT
Astronomical Twilight 4:13 AM ACDT 9:55 PM ACDT
Moon 7:54 PM ACDT (11/28) 5:29 AM ACDT (11/28)
Length of Visible Light 15h 13m
Length of Day
14h 16m
Full, 100% of the Moon is Illuminated
Nov 28
Full
Nov 29
Full
Dec 7
Last Quarter
Dec 13
New
Dec 20
First Quarter

Hourly Weather History & Observations

Time (ACDT) Temp. Dew Point Humidity Pressure Visibility Wind Dir Wind Speed Gust Speed Precip Events Conditions
12:00 AM 72 °F 53 °F 41% 29.87 in 19 mi South 9.2 mph - -   Partly Cloudy
12:00 AM 71.6 °F 53.6 °F 53% 29.86 in - South 9.2 mph - N/A   Clear
12:30 AM 71.6 °F 53.6 °F 53% 29.83 in - SSE 8.1 mph - N/A   Clear
1:00 AM 73.4 °F 53.6 °F 50% 29.83 in - ESE 9.2 mph - N/A   Clear
1:30 AM 73.4 °F 55.4 °F 53% 29.83 in - ESE 8.1 mph - N/A   Clear
2:00 AM 73.4 °F 53.6 °F 50% 29.83 in - East 5.8 mph - N/A   Clear
2:30 AM 73.4 °F 55.4 °F 53% 29.83 in - East 9.2 mph - N/A   Clear
3:00 AM 73 °F 56 °F 44% 29.82 in 19 mi East 9.2 mph - -   Partly Cloudy
3:00 AM 73.4 °F 55.4 °F 53% 29.80 in - East 9.2 mph - N/A   Clear
3:30 AM 71.6 °F 55.4 °F 57% 29.80 in - NW 8.1 mph - N/A   Clear
4:00 AM 71.6 °F 55.4 °F 57% 29.80 in - West 5.8 mph - N/A   Clear
4:30 AM 71 °F 56 °F 50% 29.82 in - WNW 5.8 mph - -  
4:30 AM 71.6 °F 55.4 °F 57% 29.80 in - WNW 5.8 mph - N/A   Clear
5:00 AM 69.8 °F 57.2 °F 64% 29.83 in - NW 4.6 mph - N/A   Clear
5:30 AM 68.0 °F 57.2 °F 68% 29.80 in - NW 1.2 mph - N/A   Clear
6:00 AM 67 °F 59 °F 70% 29.84 in 19 mi Calm Calm - -   Partly Cloudy
6:00 AM 68.0 °F 59.0 °F 73% 29.83 in - Calm Calm - N/A   Clear
6:30 AM 69.8 °F 60.8 °F 73% 29.83 in - Calm Calm - N/A   Clear
7:00 AM 71.6 °F 60.8 °F 69% 29.83 in - SSW 1.2 mph - N/A   Clear
7:30 AM 73 °F 59 °F 53% 29.86 in - NW 4.6 mph - -  
7:30 AM 73.4 °F 59.0 °F 61% 29.86 in - NW 4.6 mph - N/A   Clear
8:00 AM 75.2 °F 59.0 °F 57% 29.86 in - NW 3.5 mph - N/A   Clear
8:30 AM 75.2 °F 62.6 °F 65% 29.86 in - NE 2.3 mph - N/A   Clear
9:00 AM 74 °F 61 °F 54% 29.87 in 11 mi West 8.1 mph - -   Haze
9:00 AM 73.4 °F 60.8 °F 65% 29.86 in - West 8.1 mph - N/A   Clear
9:30 AM 75.2 °F 59.0 °F 57% 29.86 in - West 8.1 mph - N/A   Clear
10:00 AM 77.0 °F 59.0 °F 54% 29.86 in - West 8.1 mph - N/A   Clear
10:30 AM 76 °F 60 °F 47% 29.87 in - West 10.4 mph - -  
10:30 AM 75.2 °F 59.0 °F 57% 29.86 in - West 10.4 mph - N/A   Clear
11:00 AM 75.2 °F 59.0 °F 57% 29.86 in - West 10.4 mph - N/A   Clear
11:30 AM 77.0 °F 59.0 °F 54% 29.86 in - West 11.5 mph - N/A   Clear
12:00 PM 77 °F 58 °F 41% 29.86 in 14 mi WSW 11.5 mph - -   Haze
12:00 PM 77.0 °F 57.2 °F 50% 29.83 in - SW 11.5 mph - N/A   Clear
12:30 PM 78.8 °F 57.2 °F 47% 29.83 in - WSW 11.5 mph - N/A   Clear
1:00 PM 77.0 °F 60.8 °F 57% 29.83 in - WSW 12.7 mph - N/A   Clear
1:30 PM 76 °F 61 °F 49% 29.85 in - WSW 11.5 mph - -  
1:30 PM 77.0 °F 60.8 °F 57% 29.83 in - WSW 11.5 mph - N/A   Clear
2:00 PM 77.0 °F 59.0 °F 54% 29.83 in - SW 10.4 mph - N/A   Clear
2:30 PM 78.8 °F 60.8 °F 54% 29.80 in - WSW 11.5 mph - N/A   Clear
3:00 PM 78 °F 60 °F 44% 29.81 in 16 mi WSW 11.5 mph - -   Partly Cloudy
3:00 PM 77.0 °F 60.8 °F 57% 29.80 in - WSW 11.5 mph - N/A   Clear
3:30 PM 75.2 °F 60.8 °F 61% 29.77 in - WSW 12.7 mph - N/A   Clear
4:00 PM 75.2 °F 59.0 °F 57% 29.77 in - SW 10.4 mph - N/A   Clear
4:30 PM 77 °F 58 °F 41% 29.78 in - SW 8.1 mph - -  
4:30 PM 77.0 °F 57.2 °F 50% 29.77 in - SW 8.1 mph - N/A   Clear
5:00 PM 78.8 °F 57.2 °F 47% 29.77 in - SW 10.4 mph - N/A   Clear
5:30 PM 78.8 °F 59.0 °F 51% 29.74 in - SW 11.5 mph - N/A   Clear
6:00 PM 77 °F 59 °F 44% 29.76 in 19 mi SW 13.8 mph - -   Partly Cloudy
6:00 PM 77.0 °F 59.0 °F 54% 29.74 in - SW 13.8 mph - N/A   Clear
6:30 PM 78.8 °F 59.0 °F 51% 29.74 in - SW 11.5 mph - N/A   Clear
7:00 PM 78.8 °F 59.0 °F 51% 29.74 in - SW 9.2 mph - N/A   Clear
7:30 PM 76 °F 61 °F 50% 29.76 in - WSW 9.2 mph - -  
7:30 PM 77.0 °F 60.8 °F 57% 29.74 in - WSW 9.2 mph - N/A   Clear
8:00 PM 73.4 °F 62.6 °F 69% 29.74 in - West 8.1 mph - N/A   Clear
8:30 PM 71.6 °F 64.4 °F 78% 29.77 in - West 8.1 mph - N/A   Clear
9:00 PM 71 °F 65 °F 76% 29.77 in 16 mi SW 4.6 mph - -   Partly Cloudy
9:00 PM 71.6 °F 64.4 °F 78% 29.77 in - SW 4.6 mph - N/A   Clear
9:30 PM 69.8 °F 66.2 °F 88% 29.77 in - West 1.2 mph - N/A   Clear
10:00 PM 69.8 °F 64.4 °F 83% 29.74 in - Calm Calm - N/A   Clear
10:30 PM 69 °F 64 °F 79% 29.76 in - NNW 4.6 mph - -  
10:30 PM 69.8 °F 64.4 °F 83% 29.74 in - NNW 4.6 mph - N/A   Clear
11:00 PM 68.0 °F 62.6 °F 83% 29.74 in - SW 3.5 mph - N/A   Clear
11:30 PM 68.0 °F 62.6 °F 83% 29.74 in - ESE 3.5 mph - N/A   Clear